CW1662 Weather Reports


Display with metric or nautical units.
time (UTC)temp
F
wind
direction
speed
MPH
gust
MPH
rain 1hr
in
rain 24hr
in
rain mn
in
humidity
%
barometer
mb
20260506091327 69 217 5.0 9.0 0.00 0.00 0.00 60 1005.8
20260506090830 69 213 4.0 7.0 0.00 0.00 0.00 60 1005.9
20260506090333 69 182 5.0 11.0 0.00 0.00 0.00 60 1005.8
20260506085857 69 227 4.0 11.0 0.00 0.00 0.00 59 1005.9
20260506085359 69 195 3.0 11.0 0.00 0.00 0.00 59 1005.9
20260506084841 70 187 5.0 10.0 0.00 0.00 0.00 59 1006.0
20260506084325 70 199 5.0 12.0 0.00 0.00 0.00 58 1006.1
20260506083828 70 186 6.0 11.0 0.00 0.00 0.00 58 1006.1
20260506083334 70 170 5.0 10.0 0.00 0.00 0.00 58 1006.1
20260506082842 70 196 4.0 9.0 0.00 0.00 0.00 57 1006.1
20260506082403 70 153 4.0 9.0 0.00 0.00 0.00 57 1006.2
20260506081845 70 194 5.0 9.0 0.00 0.00 0.00 57 1006.1
20260506081327 70 188 4.0 10.0 0.00 0.00 0.00 57 1006.2
20260506080831 70 200 6.0 10.0 0.00 0.00 0.00 57 1006.2
20260506080354 70 187 3.0 10.0 0.00 0.00 0.00 57 1006.2
20260506073335 70 189 2.0 6.0 0.00 0.00 0.00 55 1005.9
20260506072838 70 182 4.0 6.0 0.00 0.00 0.00 54 1006.0
20260506072341 70 209 1.0 6.0 0.00 0.00 0.00 55 1005.9
20260506071829 70 207 2.0 6.0 0.00 0.00 0.00 54 1006.1
20260506071332 70 196 1.0 3.0 0.00 0.00 0.00 54 1006.0
20260506070856 71 182 1.0 4.0 0.00 0.00 0.00 53 1006.1
20260506070340 71 150 1.0 4.0 0.00 0.00 0.00 52 1006.2
20260506062326 72 178 3.0 11.0 0.00 0.00 0.00 49 1006.7
20260506061829 72 196 4.0 11.0 0.00 0.00 0.00 49 1006.7
20260506061333 72 193 2.0 7.0 0.00 0.00 0.00 50 1006.6
20260506060840 72 190 3.0 8.0 0.00 0.00 0.00 50 1006.8
20260506060324 72 183 3.0 5.0 0.00 0.00 0.00 50 1006.9
20260506051340 71 187 2.0 4.0 0.00 0.00 0.00 48 1007.6
20260506050842 71 191 1.0 4.0 0.00 0.00 0.00 47 1007.5
20260506050331 71 191 1.0 4.0 0.00 0.00 0.00 47 1007.5
20260506044825 70 190 1.0 3.0 0.00 0.00 0.00 48 1007.6
20260506044328 70 190 1.0 3.0 0.00 0.00 0.00 48 1007.5
20260506043832 70 190 1.0 1.0 0.00 0.00 0.00 48 1007.5
20260506043356 70 190 0.0 3.0 0.00 0.00 0.00 48 1007.6
20260506042839 70 190 1.0 3.0 0.00 0.00 0.00 47 1007.6
20260506042341 71 190 1.0 3.0 0.00 0.00 0.00 46 1007.6
20260506041825 71 190 2.0 4.0 0.00 0.00 0.00 45 1007.6
20260506041329 72 190 2.0 4.0 0.00 0.00 0.00 44 1007.7
20260506040832 72 199 3.0 5.0 0.00 0.00 0.00 44 1007.6
20260506040340 72 191 3.0 5.0 0.00 0.00 0.00 44 1007.5
20260506035842 72 192 3.0 6.0 0.00 0.00 0.00 43 1007.5
20260506035325 73 187 3.0 6.0 0.00 0.00 0.00 43 1007.5
20260506034828 73 196 4.0 6.0 0.00 0.00 0.00 42 1007.5
20260506034333 73 181 3.0 7.0 0.00 0.00 0.00 42 1007.5
20260506033859 73 196 3.0 7.0 0.00 0.00 0.00 42 1007.5
20260506033342 73 198 3.0 9.0 0.00 0.00 0.00 42 1007.4
20260506032826 73 194 4.0 9.0 0.00 0.00 0.00 41 1007.5
20260506032329 73 208 3.0 7.0 0.00 0.00 0.00 41 1007.5
20260506031833 73 189 3.0 6.0 0.00 0.00 0.00 41 1007.5
20260506031336 73 188 4.0 9.0 0.00 0.00 0.00 41 1007.5
20260506030901 74 173 4.0 9.0 0.00 0.00 0.00 40 1007.4
20260506030330 74 203 4.0 7.0 0.00 0.00 0.00 40 1007.3
20260506025854 74 200 4.0 7.0 0.00 0.00 0.00 39 1007.3
20260506025340 74 196 4.0 6.0 0.00 0.00 0.00 40 1007.4
20260506024826 74 192 3.0 6.0 0.00 0.00 0.00 39 1007.4
20260506024330 74 167 3.0 6.0 0.00 0.00 0.00 39 1007.5
20260506023834 74 186 5.0 6.0 0.00 0.00 0.00 39 1007.5
20260506023342 74 186 3.0 7.0 0.00 0.00 0.00 39 1007.5
20260506022825 74 202 4.0 7.0 0.00 0.00 0.00 39 1007.5
20260506022328 74 197 4.0 6.0 0.00 0.00 0.00 39 1007.4
20260506021831 74 185 3.0 6.0 0.00 0.00 0.00 39 1007.4
20260506021336 74 200 4.0 6.0 0.00 0.00 0.00 38 1007.4
20260506020827 75 171 3.0 7.0 0.00 0.00 0.00 38 1007.3
20260506020331 75 194 3.0 7.0 0.00 0.00 0.00 38 1007.4
20260506015835 75 188 4.0 7.0 0.00 0.00 0.00 39 1007.4
20260506015358 75 184 3.0 6.0 0.00 0.00 0.00 39 1007.4
20260506014841 75 171 4.0 6.0 0.00 0.00 0.00 39 1007.4
20260506014325 75 193 3.0 6.0 0.00 0.00 0.00 39 1007.5
20260506013829 75 192 3.0 6.0 0.00 0.00 0.00 38 1007.5
20260506013336 75 188 4.0 8.0 0.00 0.00 0.00 38 1007.5
20260506012901 75 192 4.0 8.0 0.00 0.00 0.00 39 1007.5
20260506012342 76 182 5.0 7.0 0.00 0.00 0.00 38 1007.3
20260506011825 76 191 5.0 7.0 0.00 0.00 0.00 38 1007.2
20260506011329 75 166 4.0 6.0 0.00 0.00 0.00 38 1007.2
20260506010833 76 195 3.0 7.0 0.00 0.00 0.00 39 1007.2
20260506010340 76 205 4.0 7.0 0.00 0.00 0.00 39 1007.2
20260506005844 75 192 4.0 7.0 0.00 0.00 0.00 39 1007.0
20260506005326 75 184 3.0 6.0 0.00 0.00 0.00 41 1007.0
20260506004831 74 197 1.0 4.0 0.00 0.00 0.00 41 1007.0
20260506004335 75 197 2.0 4.0 0.00 0.00 0.00 41 1007.0
20260506003840 75 196 2.0 3.0 0.00 0.00 0.00 40 1007.0
20260506003324 77 192 0.0 9.0 0.00 0.00 0.00 38 1006.8
20260506002827 77 199 4.0 9.0 0.00 0.00 0.00 37 1006.6
20260506002329 78 202 3.0 11.0 0.00 0.00 0.00 37 1006.5
20260506001836 78 187 6.0 11.0 0.00 0.00 0.00 35 1006.4
20260506001324 78 188 5.0 10.0 0.00 0.00 0.00 35 1006.3
20260506000827 79 188 6.0 16.0 0.00 0.00 0.00 34 1006.3
20260506000332 79 169 4.0 16.0 0.00 0.00 0.00 35 1006.2
20260505235855 79 170 7.0 12.0 0.00 0.00 0.00 34 1006.3
20260505235340 79 196 5.0 11.0 0.00 0.00 0.00 34 1006.1
20260505234824 80 186 4.0 11.0 0.00 0.00 0.00 35 1006.2
20260505234328 80 212 5.0 10.0 0.00 0.00 0.00 34 1006.0
20260505233832 80 195 4.0 11.0 0.00 0.00 0.00 34 1006.0
20260505233340 81 196 7.0 15.0 0.00 0.00 0.00 34 1006.0
20260505232844 81 193 7.0 15.0 0.00 0.00 0.00 34 1006.1
20260505232347 81 240 6.0 15.0 0.00 0.00 0.00 34 1006.0
20260505231830 81 192 6.0 13.0 0.00 0.00 0.00 34 1006.0
20260505231334 81 198 6.0 15.0 0.00 0.00 0.00 35 1006.0
20260505230841 81 200 5.0 15.0 0.00 0.00 0.00 34 1005.9
20260505230325 81 188 7.0 15.0 0.00 0.00 0.00 34 1005.9
20260505225829 81 209 7.0 15.0 0.00 0.00 0.00 35 1005.9
20260505225336 81 167 6.0 17.0 0.00 0.00 0.00 35 1005.9
20260505224840 82 207 9.0 18.0 0.00 0.00 0.00 35 1005.9
20260505224343 82 170 7.0 18.0 0.00 0.00 0.00 36 1005.9
20260505223827 82 194 9.0 16.0 0.00 0.00 0.00 37 1006.0
20260505223351 82 172 7.0 12.0 0.00 0.00 0.00 36 1005.9
20260505222834 82 171 4.0 10.0 0.00 0.00 0.00 37 1005.9
20260505222336 82 185 4.0 10.0 0.00 0.00 0.00 36 1005.9
20260505221824 82 169 2.0 13.0 0.00 0.00 0.00 36 1005.9
20260505221347 82 206 6.0 13.0 0.00 0.00 0.00 34 1005.9
20260505220850 82 195 4.0 15.0 0.00 0.00 0.00 34 1005.8
20260505220337 82 194 7.0 15.0 0.00 0.00 0.00 31 1005.9
20260505215841 82 188 8.0 15.0 0.00 0.00 0.00 31 1005.9
20260505215404 82 209 7.0 15.0 0.00 0.00 0.00 30 1006.0
20260505214826 82 193 7.0 16.0 0.00 0.00 0.00 30 1006.0
20260505214353 82 202 6.0 22.0 0.00 0.00 0.00 31 1006.0
20260505213836 82 198 10.0 22.0 0.00 0.00 0.00 30 1006.0
20260505213401 82 167 7.0 14.0 0.00 0.00 0.00 31 1005.9
20260505212844 82 190 6.0 20.0 0.00 0.00 0.00 31 1005.9
20260505212326 83 232 13.0 23.0 0.00 0.00 0.00 30 1005.8
20260505211830 83 178 14.0 23.0 0.00 0.00 0.00 30 1005.9
20260505211353 84 190 10.0 25.0 0.00 0.00 0.00 31 1005.9
20260505210837 85 195 12.0 25.0 0.00 0.00 0.00 29 1005.7
20260505210401 85 211 10.0 22.0 0.00 0.00 0.00 31 1005.7
20260505205844 84 196 12.0 22.0 0.00 0.00 0.00 30 1005.8
20260505205327 84 203 12.0 19.0 0.00 0.00 0.00 31 1005.7
20260505204836 85 197 7.0 17.0 0.00 0.00 0.00 33 1005.7
20260505204340 85 186 6.0 26.0 0.00 0.00 0.00 33 1005.7
20260505203824 85 185 13.0 26.0 0.00 0.00 0.00 31 1005.7
20260505203329 85 198 7.0 17.0 0.00 0.00 0.00 33 1005.6
20260505202832 84 200 8.0 20.0 0.00 0.00 0.00 34 1005.8
20260505202336 85 193 6.0 20.0 0.00 0.00 0.00 33 1005.7
20260505201840 84 205 6.0 18.0 0.00 0.00 0.00 34 1005.9
20260505201324 84 198 6.0 20.0 0.00 0.00 0.00 35 1005.9
20260505200828 84 180 11.0 20.0 0.00 0.00 0.00 34 1006.0
20260505200332 85 230 10.0 20.0 0.00 0.00 0.00 33 1005.8
20260505195836 85 184 7.0 17.0 0.00 0.00 0.00 35 1006.0
20260505195323 84 209 11.0 18.0 0.00 0.00 0.00 32 1006.0
20260505194851 84 202 11.0 19.0 0.00 0.00 0.00 33 1006.1
20260505194335 85 186 5.0 20.0 0.00 0.00 0.00 38 1006.1
20260505193839 85 162 8.0 20.0 0.00 0.00 0.00 34 1006.1
20260505193324 85 198 9.0 17.0 0.00 0.00 0.00 33 1006.3
20260505192827 85 204 9.0 17.0 0.00 0.00 0.00 35 1006.4
20260505192334 84 184 8.0 18.0 0.00 0.00 0.00 37 1006.5
20260505191857 84 192 9.0 19.0 0.00 0.00 0.00 37 1006.5
20260505191340 84 209 11.0 19.0 0.00 0.00 0.00 36 1006.5
20260505190826 84 184 3.0 18.0 0.00 0.00 0.00 36 1006.7
20260505190334 84 203 10.0 18.0 0.00 0.00 0.00 37 1006.7
20260505185839 84 178 7.0 12.0 0.00 0.00 0.00 39 1006.7
20260505185346 84 181 6.0 15.0 0.00 0.00 0.00 38 1006.8
20260505184830 84 199 9.0 16.0 0.00 0.00 0.00 39 1006.8
20260505184334 84 225 9.0 18.0 0.00 0.00 0.00 39 1006.9
20260505183842 84 207 9.0 18.0 0.00 0.00 0.00 38 1007.0
20260505183326 84 160 4.0 12.0 0.00 0.00 0.00 39 1006.9
20260505182831 84 199 6.0 15.0 0.00 0.00 0.00 37 1007.0
20260505182335 84 194 4.0 16.0 0.00 0.00 0.00 41 1007.1
20260505181839 84 213 7.0 16.0 0.00 0.00 0.00 37 1007.3
20260505181403 84 182 6.0 15.0 0.00 0.00 0.00 40 1007.2
20260505180826 84 234 8.0 18.0 0.00 0.00 0.00 38 1007.3
20260505180330 84 212 8.0 18.0 0.00 0.00 0.00 39 1007.4
20260505175834 84 212 4.0 16.0 0.00 0.00 0.00 39 1007.3
20260505175324 84 168 8.0 16.0 0.00 0.00 0.00 38 1007.5
20260505174829 83 156 7.0 15.0 0.00 0.00 0.00 40 1007.5
20260505174332 83 168 9.0 13.0 0.00 0.00 0.00 41 1007.6
20260505173840 83 143 5.0 16.0 0.00 0.00 0.00 41 1007.6
20260505173343 83 192 7.0 16.0 0.00 0.00 0.00 39 1007.7
20260505172827 83 181 5.0 16.0 0.00 0.00 0.00 40 1007.6
20260505172350 84 185 10.0 16.0 0.00 0.00 0.00 38 1007.6
20260505171834 83 188 8.0 14.0 0.00 0.00 0.00 41 1007.6
20260505171341 83 239 4.0 20.0 0.00 0.00 0.00 42 1007.6
20260505170826 83 184 5.0 20.0 0.00 0.00 0.00 40 1007.6
20260505170351 83 189 8.0 15.0 0.00 0.00 0.00 38 1007.8
20260505165834 83 183 8.0 15.0 0.00 0.00 0.00 39 1007.9
20260505165342 83 189 4.0 17.0 0.00 0.00 0.00 39 1007.8
20260505164826 82 189 3.0 17.0 0.00 0.00 0.00 41 1007.9
20260505164331 82 171 5.0 12.0 0.00 0.00 0.00 43 1008.2
20260505163835 82 245 4.0 12.0 0.00 0.00 0.00 39 1008.2
20260505163339 81 250 6.0 12.0 0.00 0.00 0.00 41 1008.3
20260505162843 82 250 5.0 15.0 0.00 0.00 0.00 39 1008.3
20260505162326 82 246 4.0 15.0 0.00 0.00 0.00 39 1008.3
20260505161831 82 224 6.0 15.0 0.00 0.00 0.00 40 1008.4
20260505161335 82 191 8.0 14.0 0.00 0.00 0.00 39 1008.5
20260505160839 82 236 6.0 15.0 0.00 0.00 0.00 42 1008.7
20260505160328 82 207 6.0 15.0 0.00 0.00 0.00 40 1008.7
20260505153334 80 215 7.0 14.0 0.00 0.00 0.00 46 1009.0
20260505152837 80 202 10.0 15.0 0.00 0.00 0.00 44 1008.9
20260505152341 80 241 7.0 15.0 0.00 0.00 0.00 47 1008.9
20260505151844 80 161 8.0 15.0 0.00 0.00 0.00 45 1008.8
20260505151331 80 184 4.0 11.0 0.00 0.00 0.00 46 1009.1
20260505150856 79 218 3.0 10.0 0.00 0.00 0.00 47 1009.1
20260505150338 79 200 6.0 13.0 0.00 0.00 0.00 47 1009.1
20260505140329 77 200 5.0 13.0 0.00 0.00 0.00 50 1009.0
20260505124840 70 148 5.0 11.0 0.00 0.00 0.00 58 1009.9
20260505124324 69 207 4.0 9.0 0.00 0.00 0.00 60 1009.9
20260505123828 69 198 4.0 9.0 0.00 0.00 0.00 60 1009.9
20260505123351 68 194 4.0 10.0 0.00 0.00 0.00 61 1009.9
20260505122834 68 184 5.0 10.0 0.00 0.00 0.00 61 1009.9
20260505122338 68 187 4.0 9.0 0.00 0.00 0.00 62 1010.0
20260505121842 67 182 4.0 9.0 0.00 0.00 0.00 63 1010.1
20260505121347 67 200 5.0 9.0 0.00 0.00 0.00 64 1010.1
20260505120829 67 192 4.0 8.0 0.00 0.00 0.00 65 1010.1
20260505120333 66 197 3.0 10.0 0.00 0.00 0.00 65 1010.1
20260505115836 66 214 5.0 10.0 0.00 0.00 0.00 65 1010.1
20260505115324 66 192 3.0 6.0 0.00 0.00 0.00 66 1010.1
20260505114828 65 191 2.0 6.0 0.00 0.00 0.00 67 1010.0
20260505114335 65 190 3.0 7.0 0.00 0.00 0.00 67 1010.1
20260505113902 65 194 4.0 7.0 0.00 0.00 0.00 67 1010.0
20260505113346 64 189 2.0 5.0 0.00 0.00 0.00 68 1009.9
20260505112829 64 198 2.0 5.0 0.00 0.00 0.00 68 1009.8
20260505112332 64 188 3.0 5.0 0.00 0.00 0.00 69 1009.9
20260505111857 63 197 3.0 4.0 0.00 0.00 0.00 70 1009.7
20260505111340 62 195 2.0 5.0 0.00 0.00 0.00 71 1009.5
20260505110825 62 198 0.0 5.0 0.00 0.00 0.00 73 1009.5
20260505110333 61 190 0.0 3.0 0.00 0.00 0.00 74 1009.6
20260505101851 61 190 1.0 3.0 0.00 0.00 0.00 72 1008.8
20260505101334 62 190 1.0 3.0 0.00 0.00 0.00 71 1008.8
20260505100836 62 189 1.0 4.0 0.00 0.00 0.00 71 1008.8
20260505100344 62 189 1.0 4.0 0.00 0.00 0.00 70 1008.7
20260505095828 63 182 1.0 5.0 0.00 0.00 0.00 69 1008.7
20260505095332 63 193 3.0 10.0 0.00 0.00 0.00 69 1008.6
20260505094840 63 184 4.0 10.0 0.00 0.00 0.00 69 1008.5
20260505094345 63 178 4.0 9.0 0.00 0.00 0.00 69 1008.5
20260505093827 63 205 4.0 8.0 0.00 0.00 0.00 70 1008.5
20260505093331 63 170 4.0 6.0 0.00 0.00 0.00 69 1008.5
20260505092835 63 184 2.0 9.0 0.00 0.00 0.00 69 1008.5
20260505092339 63 185 4.0 9.0 0.00 0.00 0.00 69 1008.5
20260505091823 63 164 2.0 5.0 0.00 0.00 0.00 70 1008.5